Вернуться в каталог

ATLAS 5 CENTAUR DEB

АктивенHEO
NORAD 44674·DEBRIS·🇺🇸 United States

Запущен Oct 17, 2018 с Cape Canaveral Space Force Station

Loading…

Ближайшие Пролёты (ближайшие 24 часа)

TLE

УстаревающийSource: Space-Track

Эпоха: Aug 29, 2026, 14:35 UTC

1 44674U 18079AL  26241.60814329 -.00000112  00000-0  00000-0 0  9993
2 44674  13.1559  28.6768 4356901 350.7195   3.1785  1.93746291 50962

Отслеживайте ATLAS 5 CENTAUR DEB в реальном времени с AllMySat

Download on the App Store